Погода в Демидовке

Россия / Белгородская область     50°56′49″N   35°23′31″E
темп.,
°C
ветер,
м/с
пор.,
м/с
влажн.,
%
обл.,
%
осадки,
мм/ч
давл.,
гПа
погр.,
м
29 января, сб
сб2900:00−1ююз4896100 0.1 1006278
03:00−1ю3897100 0.2 1005298
06:00−2ю379898 0.4 1005200
09:00−3ююз259891 0.6 1006125
12:000з47100100 0.4 1007448
15:00−1зсз699585 0.9 1008523
18:00−3з5119697 0.2 1010446
21:00−4зсз5119590 0.4 1011360
30 января, вс
вс3000:00−6з5119599 0.1 1011338
03:00−6юз4996100 0.2 1010229
06:00−8ююз51397100 0.1 1007307
09:00−6ююз71692100 0.1 1004477
12:00−4ююз91893100 0.2 1001817
15:00−3ююз91694100 1.2 998839
18:00−2ююз71496100 0.8 997624
21:00−1ююз6139499 1.1 996458
31 января, пн
пн3100:00−1ююз71192100 0.1 996706
03:00−1ю7149499 0.2 994726
06:00−2ю81595100 0.6 993643
09:00−1ююз91596100 1.5 992904
12:000юз7119498 0.8 993865
15:00−1юз81396100 1.3 993857
18:00−2зюз61295100 0.4 996677
21:00−3зюз61296100 0.9 998700
1 февраля, вт
вт100:00−3зюз71392100 0.4 1000594
03:00−4зюз71394100 0.6 1002653
06:00−4зюз61192100 0.3 1004528
09:00−5юз61293100 0.4 1006432
12:00−4юз61194100 0.1 1007557
15:00−3юз6108897 0.1 1007664
18:00−7ююз369697 0.0 100886
21:00−10ююз2498100 0.0 100952
2 февраля, ср
ср200:00−6ююз2497100 0.0 1008111
03:00−5ююв2497100 0.2 1007101
06:00−4вюв1298100 0.8 100553
09:00−4св1297100 1.8 100467
12:00−2ссз2293100 0.7 1004295
15:00−2сз238881 0.7 1004450
18:00−7зюз119484 0.0 100610
21:00−11зюз229979 0.0 100810